EW1148 Weather Reports


time (UTC)temp
F
wind
direction
speed
knots
gust
knots
rain 1hr
in
rain 24hr
in
rain mn
in
humidity
%
barometer
mb
20260509024506 54 270 2.6 6.1 0.00 0.14 0.14 92 1012.1
20260509024003 54 270 1.7 6.1 0.00 0.14 0.14 92 1012.4
20260509023506 54 270 1.7 4.3 0.00 0.13 0.13 92 1012.4
20260509023008 54 247 0.9 8.7 0.00 0.12 0.12 92 1012.1
20260509022502 54 292 2.6 8.7 0.00 0.11 0.11 91 1012.1
20260509021507 54 225 2.6 8.7 0.00 0.10 0.10 91 1012.1
20260509021004 54 247 2.6 7.0 0.00 0.09 0.09 90 1012.1
20260509020505 54 270 2.6 7.0 0.00 0.08 0.08 90 1012.1
20260509020001 54 247 4.3 7.8 0.00 0.07 0.07 90 1012.1
20260509015505 54 247 4.3 7.8 0.00 0.06 0.06 89 1012.1
20260509015002 54 270 4.3 7.0 0.00 0.06 0.06 89 1012.1
20260509014006 54 270 4.3 7.0 0.00 0.05 0.05 88 1011.7
20260509013506 54 292 2.6 5.2 0.00 0.04 0.04 88 1011.7
20260509013006 54 270 3.5 4.3 0.00 0.03 0.03 88 1011.7
20260509012506 54 270 1.7 4.3 0.00 0.03 0.03 87 1011.4
20260509012007 54 270 0.9 4.3 0.00 0.02 0.02 87 1011.4
20260509011503 54 247 0.9 2.6 0.00 0.02 0.02 86 1011.4
20260509011005 54 247 0.0 2.6 0.00 0.02 0.02 86 1011.4
20260509010507 55 247 0.0 2.6 0.00 0.02 0.02 85 1011.4
20260509005501 55 247 0.9 3.5 0.00 0.01 0.01 84 1011.4
20260509004504 55 270 2.6 6.1 0.00 0.01 0.01 82 1011.7
20260509004001 55 292 3.5 6.1 0.00 0.01 0.01 80 1011.4
20260509003503 56 270 2.6 6.1 0.00 0.01 0.01 80 1011.7
20260509003005 56 292 2.6 7.8 0.00 0.00 0.00 79 1011.7
20260509002501 56 270 3.5 7.0 0.00 0.00 0.00 78 1011.4
20260509002004 56 292 3.5 6.1 0.00 0.00 0.00 77 1011.4
20260509001505 56 270 4.3 9.6 0.00 0.00 0.00 76 1011.4
20260509001001 57 292 3.5 9.6 0.00 0.00 0.00 75 1011.4
20260509000504 57 315 4.3 9.6 0.00 0.00 0.00 74 1011.4
20260509000006 57 270 3.5 9.6 0.00 0.00 0.00 72 1011.4
20260508235502 58 292 3.5 7.0 0.00 0.00 0.00 71 1011.4
20260508234505 59 315 3.5 11.3 0.00 0.00 0.00 68 1011.4
20260508234006 59 270 6.1 8.7 0.00 0.00 0.00 68 1011.4
20260508233507 59 270 3.5 4.3 0.00 0.00 0.00 67 1011.4
20260508233003 59 270 1.7 5.2 0.00 0.00 0.00 67 1011.4
20260508232513 59 270 1.7 4.3 0.00 0.00 0.00 67 1011.0
20260508232002 60 270 0.9 4.3 0.00 0.00 0.00 66 1011.0
20260508231504 60 270 2.6 7.0 0.00 0.00 0.00 66 1011.4
20260508230507 60 270 2.6 5.2 0.00 0.00 0.00 64 1011.4
20260508230002 61 270 3.5 4.3 0.00 0.00 0.00 62 1011.4
20260508225504 61 270 2.6 4.3 0.00 0.00 0.00 61 1011.0
20260508225006 61 225 0.0 4.3 0.00 0.00 0.00 59 1011.0
20260508224502 62 247 0.9 3.5 0.00 0.00 0.00 58 1011.0
20260508223504 62 270 1.7 3.5 0.00 0.00 0.00 57 1010.7
20260508223007 62 202 0.0 7.0 0.00 0.00 0.00 57 1011.0
20260508222503 62 225 0.9 7.0 0.00 0.00 0.00 57 1010.7
20260508222005 62 270 1.7 3.5 0.00 0.00 0.00 56 1010.7
20260508221507 62 180 1.7 5.2 0.00 0.00 0.00 56 1010.4
20260508221003 62 202 2.6 5.2 0.00 0.00 0.00 56 1010.7
20260508220505 62 202 1.7 4.3 0.00 0.00 0.00 56 1010.7
20260508220001 63 225 0.9 3.5 0.00 0.00 0.00 56 1010.7
20260508215004 63 247 0.9 3.5 0.00 0.00 0.00 55 1010.7
20260508214506 63 202 0.9 5.2 0.00 0.00 0.00 55 1010.7
20260508214002 63 202 0.9 3.5 0.00 0.00 0.00 55 1010.7
20260508213504 63 202 1.7 2.6 0.00 0.00 0.00 55 1010.7
20260508213006 63 225 0.0 2.6 0.00 0.00 0.00 54 1010.7
20260508212509 63 202 0.9 2.6 0.00 0.00 0.00 54 1010.7
20260508211507 63 270 0.9 3.5 0.00 0.00 0.00 54 1011.0
20260508211007 63 180 0.0 3.5 0.00 0.00 0.00 54 1011.0
20260508210503 63 247 0.0 1.7 0.00 0.00 0.00 54 1011.0
20260508210005 63 247 0.0 5.2 0.00 0.00 0.00 53 1011.0
20260508205505 63 225 0.9 5.2 0.00 0.00 0.00 53 1011.4
20260508205007 63 247 3.5 5.2 0.00 0.00 0.00 53 1011.4
20260508204503 63 247 2.6 10.4 0.00 0.00 0.00 52 1011.4
20260508204005 63 225 4.3 10.4 0.00 0.00 0.00 52 1011.4
20260508203507 63 270 1.7 10.4 0.00 0.00 0.00 52 1011.4
20260508202504 63 247 6.1 8.7 0.00 0.00 0.00 51 1011.4
20260508202006 64 270 3.5 7.0 0.00 0.00 0.00 51 1011.7
20260508201502 64 270 4.3 8.7 0.00 0.00 0.00 51 1011.4
20260508200505 64 270 3.5 7.0 0.00 0.00 0.00 51 1011.7
20260508200001 64 247 3.5 6.1 0.00 0.00 0.00 51 1012.1
20260508195503 64 247 0.9 6.1 0.00 0.00 0.00 51 1012.1
20260508195006 64 270 0.9 6.1 0.00 0.00 0.00 50 1012.1
20260508194506 64 247 1.7 7.8 0.00 0.00 0.00 50 1012.1
20260508194002 64 225 2.6 7.8 0.00 0.00 0.00 50 1012.1
20260508193504 64 247 4.3 7.8 0.00 0.00 0.00 50 1012.1
20260508192005 64 270 2.6 6.1 0.00 0.00 0.00 49 1012.1
20260508191002 64 270 1.7 10.4 0.00 0.00 0.00 48 1012.1
20260508190504 64 225 3.5 10.4 0.00 0.00 0.00 47 1012.4
20260508190006 64 247 3.5 10.4 0.00 0.00 0.00 47 1012.4
20260508185003 65 337 5.2 10.4 0.00 0.00 0.00 46 1012.4
20260508184505 66 180 4.3 12.2 0.00 0.00 0.00 47 1012.4
20260508183502 66 247 4.3 11.3 0.00 0.00 0.00 47 1012.4
20260508183004 65 202 5.2 12.2 0.00 0.00 0.00 48 1012.4
20260508182501 65 225 5.2 12.2 0.00 0.00 0.00 49 1012.7
20260508181502 64 247 2.6 13.9 0.00 0.00 0.00 49 1012.7
20260508181017 65 247 5.2 13.9 0.00 0.00 0.00 49 1012.7
20260508180502 65 202 7.0 13.9 0.00 0.00 0.00 49 1012.7
20260508180004 65 225 3.5 9.6 0.00 0.00 0.00 49 1013.1
20260508175506 65 202 4.3 9.6 0.00 0.00 0.00 50 1013.1
20260508174004 64 247 4.3 11.3 0.00 0.00 0.00 50 1013.1
20260508173505 64 270 3.5 7.8 0.00 0.00 0.00 50 1013.4
20260508173007 63 270 3.5 14.8 0.00 0.00 0.00 50 1013.4
20260508172503 63 270 7.0 11.3 0.00 0.00 0.00 51 1013.8
20260508172004 63 270 7.0 10.4 0.00 0.00 0.00 51 1013.8
20260508171506 63 292 2.6 12.2 0.00 0.00 0.00 51 1013.8
20260508171002 63 270 2.6 12.2 0.00 0.00 0.00 51 1013.8
20260508170505 62 180 2.6 12.2 0.00 0.00 0.00 50 1014.1
20260508170001 63 225 5.2 15.6 0.00 0.00 0.00 49 1014.1
20260508165503 63 202 6.1 15.6 0.00 0.00 0.00 49 1014.1
20260508165005 63 247 4.3 10.4 0.00 0.00 0.00 49 1014.1
20260508164507 63 247 7.0 14.8 0.00 0.00 0.00 49 1014.1
20260508164003 64 225 5.2 14.8 0.00 0.00 0.00 49 1014.1
20260508163505 64 202 4.3 14.8 0.00 0.00 0.00 49 1014.1
20260508163001 63 247 5.2 14.8 0.00 0.00 0.00 50 1014.1
20260508162504 63 202 5.2 14.8 0.00 0.00 0.00 50 1014.4
20260508162006 63 270 7.0 13.0 0.00 0.00 0.00 50 1014.1
20260508161508 63 202 4.3 15.6 0.00 0.00 0.00 50 1014.4
20260508161003 63 247 5.2 15.6 0.00 0.00 0.00 50 1014.4
20260508160505 62 270 4.3 15.6 0.00 0.00 0.00 50 1014.4
20260508160002 62 247 8.7 18.2 0.00 0.00 0.00 51 1014.4
20260508155504 62 247 5.2 18.2 0.00 0.00 0.00 51 1014.4
20260508155005 61 270 5.2 12.2 0.00 0.00 0.00 51 1014.8
20260508154506 62 270 7.8 15.6 0.00 0.00 0.00 51 1014.4
20260508153503 61 225 7.8 13.9 0.00 0.00 0.00 51 1014.4
20260508153005 61 270 5.2 16.5 0.00 0.00 0.00 51 1014.4
20260508152502 61 270 8.7 15.6 0.00 0.00 0.00 51 1014.4
20260508152004 61 247 9.6 15.6 0.00 0.00 0.00 51 1014.4
20260508151506 62 292 13.0 20.9 0.00 0.00 0.00 52 1014.1
20260508151002 62 247 6.1 14.8 0.00 0.00 0.00 52 1014.8
20260508150504 61 270 8.7 14.8 0.00 0.00 0.00 52 1014.8
20260508150006 61 247 8.7 16.5 0.00 0.00 0.00 53 1014.8
20260508145002 60 247 4.3 11.3 0.00 0.00 0.00 53 1014.8
20260508144505 60 247 3.5 13.0 0.00 0.00 0.00 53 1014.8
20260508144007 60 270 3.5 13.0 0.00 0.00 0.00 54 1014.8
20260508143503 59 270 5.2 12.2 0.00 0.00 0.00 54 1014.8
20260508143005 58 157 4.3 13.0 0.00 0.00 0.00 55 1014.8
20260508142507 58 247 1.7 9.6 0.00 0.00 0.00 55 1014.8
20260508142003 58 247 5.2 9.6 0.00 0.00 0.00 55 1014.8
20260508141006 58 180 3.5 9.6 0.00 0.00 0.00 54 1015.1
20260508140502 58 202 5.2 9.6 0.00 0.00 0.00 54 1015.1
20260508140005 58 202 3.5 12.2 0.00 0.00 0.00 55 1015.4
20260508135506 57 225 3.5 9.6 0.00 0.00 0.00 55 1015.4
20260508135007 57 225 3.5 9.6 0.00 0.00 0.00 56 1015.4
20260508134508 56 225 3.5 9.6 0.00 0.00 0.00 56 1015.4
20260508134003 56 180 3.5 9.6 0.00 0.00 0.00 56 1015.4
20260508133505 56 270 5.2 9.6 0.00 0.00 0.00 56 1015.4
20260508132004 55 270 6.1 11.3 0.00 0.00 0.00 57 1015.4
20260508131506 55 202 5.2 11.3 0.00 0.00 0.00 57 1015.4
20260508131002 55 270 4.3 11.3 0.00 0.00 0.00 58 1015.4
20260508130504 54 225 3.5 11.3 0.00 0.00 0.00 58 1015.4
20260508130007 54 270 5.2 14.8 0.00 0.00 0.00 58 1015.4
20260508125504 54 247 3.5 10.4 0.00 0.00 0.00 59 1015.4
20260508125007 54 202 1.7 10.4 0.00 0.00 0.00 59 1015.4
20260508124005 53 225 2.6 9.6 0.00 0.00 0.00 61 1015.1
20260508123507 53 247 2.6 9.6 0.00 0.00 0.00 61 1015.4
20260508122006 52 247 2.6 8.7 0.00 0.00 0.00 62 1015.1
20260508121503 51 247 2.6 7.8 0.00 0.00 0.00 63 1015.1
20260508121005 51 157 1.7 7.8 0.00 0.00 0.00 64 1015.1
20260508120508 50 247 1.7 7.8 0.00 0.00 0.00 65 1015.1
20260508120004 50 247 4.3 7.0 0.00 0.00 0.00 66 1015.1
20260508115507 50 202 1.7 7.0 0.00 0.00 0.00 66 1015.1
20260508114504 49 180 1.7 4.3 0.00 0.00 0.00 68 1015.1
20260508114001 48 225 2.6 4.3 0.00 0.00 0.00 69 1015.1
20260508113005 48 247 1.7 4.3 0.00 0.00 0.00 69 1015.1
20260508112502 48 247 1.7 4.3 0.00 0.00 0.00 70 1014.8
20260508111506 47 247 0.9 4.3 0.00 0.00 0.00 69 1014.8
20260508111003 48 270 0.9 4.3 0.00 0.00 0.00 69 1014.8
20260508110505 48 202 1.7 4.3 0.00 0.00 0.00 69 1014.8
20260508110008 48 225 1.7 7.0 0.00 0.00 0.00 68 1014.8
20260508105501 48 202 1.7 7.0 0.00 0.00 0.00 67 1014.8
20260508105004 48 225 2.6 7.0 0.00 0.00 0.00 67 1014.8
20260508104506 48 292 2.6 6.1 0.00 0.00 0.00 66 1014.8
20260508104007 48 247 2.6 5.2 0.00 0.00 0.00 66 1014.8
20260508103504 49 247 1.7 5.2 0.00 0.00 0.00 66 1014.8
20260508103007 49 225 1.7 7.8 0.00 0.00 0.00 66 1014.8
20260508102503 48 247 1.7 6.1 0.00 0.00 0.00 66 1014.8
20260508101506 48 292 1.7 6.1 0.00 0.00 0.00 66 1014.8
20260508101002 48 225 1.7 6.1 0.00 0.00 0.00 67 1014.8
20260508100505 48 247 1.7 5.2 0.00 0.00 0.00 67 1014.4
20260508095502 48 225 1.7 5.2 0.00 0.00 0.00 68 1014.8
20260508095005 48 202 0.9 2.6 0.00 0.00 0.00 69 1014.8
20260508094507 47 247 0.9 3.5 0.00 0.00 0.00 69 1014.8
20260508094003 47 247 1.7 3.5 0.00 0.00 0.00 70 1014.8
20260508093506 47 292 0.0 2.6 0.00 0.00 0.00 70 1014.8
20260508093002 47 247 0.0 3.5 0.00 0.00 0.00 70 1014.8
20260508092005 46 202 1.7 3.5 0.00 0.00 0.00 72 1014.8
20260508091507 46 225 0.9 3.5 0.00 0.00 0.00 73 1014.8
20260508091003 45 202 0.9 3.5 0.00 0.00 0.00 73 1014.8
20260508090007 45 225 0.0 1.7 0.00 0.00 0.00 73 1014.8
20260508085503 45 225 0.0 0.0 0.00 0.00 0.00 72 1014.8
20260508085004 45 225 0.0 0.0 0.00 0.00 0.00 72 1015.1
20260508084506 46 225 0.0 0.0 0.00 0.00 0.00 71 1014.8
20260508084008 46 225 0.0 0.0 0.00 0.00 0.00 71 1014.8
20260508083503 47 225 0.0 0.0 0.00 0.00 0.00 70 1015.1
20260508082507 47 270 0.9 4.3 0.00 0.00 0.00 70 1015.1
20260508082003 46 247 2.6 4.3 0.00 0.00 0.00 71 1014.8
20260508081506 46 247 0.9 3.5 0.00 0.00 0.00 71 1014.8
20260508081003 46 225 1.7 3.5 0.00 0.00 0.00 71 1014.8
20260508080506 46 247 0.9 2.6 0.00 0.00 0.00 71 1014.8
20260508080002 46 247 0.0 5.2 0.00 0.00 0.00 71 1014.8
20260508075505 46 247 1.7 3.5 0.00 0.00 0.00 71 1014.8
20260508075007 46 247 1.7 3.5 0.00 0.00 0.00 71 1015.1
20260508074504 46 225 1.7 3.5 0.00 0.00 0.00 71 1015.1
20260508074006 46 247 0.9 2.6 0.00 0.00 0.00 70 1015.1
20260508073503 46 247 0.0 2.6 0.00 0.00 0.00 70 1014.8
20260508073005 46 247 0.0 4.3 0.00 0.00 0.00 70 1014.8
20260508072506 46 247 0.9 3.5 0.00 0.00 0.00 70 1014.8
20260508072002 46 270 0.0 1.7 0.00 0.00 0.00 70 1015.1
20260508071505 46 247 0.0 3.5 0.00 0.00 0.00 69 1014.8
20260508071001 46 247 0.9 3.5 0.00 0.00 0.00 69 1015.1
20260508070504 46 247 1.7 3.5 0.00 0.00 0.00 68 1014.8
20260508070006 46 247 0.0 3.5 0.00 0.00 0.00 68 1015.1
20260508065503 46 247 0.0 3.5 0.00 0.00 0.00 67 1015.4
20260508065006 47 247 0.9 2.6 0.00 0.00 0.00 67 1015.1
20260508064502 47 202 0.0 3.5 0.00 0.00 0.00 67 1015.1
20260508063005 47 247 0.9 4.3 0.00 0.00 0.00 66 1015.1
20260508062502 47 247 1.7 4.3 0.00 0.00 0.00 66 1015.4
20260508062004 47 225 0.0 2.6 0.00 0.00 0.00 66 1015.4
20260508061007 47 225 0.9 3.5 0.00 0.00 0.00 66 1015.1
20260508060005 47 225 0.9 3.5 0.00 0.00 0.00 65 1015.4
20260508054504 47 247 0.0 4.3 0.00 0.00 0.00 64 1015.4
20260508054005 48 270 0.9 4.3 0.00 0.00 0.00 63 1015.4
20260508053003 48 202 0.9 4.3 0.00 0.00 0.00 62 1015.8
20260508052505 48 225 1.7 4.3 0.00 0.00 0.00 62 1015.4
20260508052002 48 225 1.7 4.3 0.00 0.00 0.00 62 1015.4
20260508051004 49 225 0.9 2.6 0.00 0.00 0.00 61 1015.4
20260508050507 49 202 0.9 2.6 0.00 0.00 0.00 60 1015.4
20260508050003 49 247 0.9 4.3 0.00 0.00 0.00 60 1015.4
20260508045506 49 202 1.7 4.3 0.00 0.00 0.00 60 1015.4
20260508044004 49 225 0.9 4.3 0.00 0.00 0.00 60 1015.8
20260508043507 49 247 2.6 4.3 0.00 0.00 0.00 60 1015.4
20260508043003 49 202 0.0 4.3 0.00 0.00 0.00 60 1015.4
20260508042505 49 247 0.0 4.3 0.00 0.00 0.00 61 1015.4
20260508042002 49 247 0.9 3.5 0.00 0.00 0.00 61 1015.4
20260508041505 49 202 0.9 4.3 0.00 0.00 0.00 61 1015.4
20260508041006 49 225 1.7 4.3 0.00 0.00 0.00 61 1015.4
20260508040502 49 247 1.7 4.3 0.00 0.00 0.00 61 1015.4
20260508040010 49 202 1.7 3.5 0.00 0.00 0.00 61 1015.4
20260508035506 49 202 0.9 3.5 0.00 0.00 0.00 61 1015.4
20260508035003 49 202 1.7 3.5 0.00 0.00 0.00 61 1015.1
20260508034505 49 202 0.0 3.5 0.00 0.00 0.00 61 1015.1
20260508034002 49 202 0.9 2.6 0.00 0.00 0.00 61 1015.1
20260508033505 49 225 0.0 1.7 0.00 0.00 0.00 61 1015.1
20260508033008 49 225 0.0 1.7 0.00 0.00 0.00 60 1015.1
20260508032504 49 225 0.9 1.7 0.00 0.00 0.00 60 1015.4
20260508031003 50 247 0.0 3.5 0.00 0.00 0.00 59 1015.4
20260508030007 50 225 1.7 3.5 0.00 0.00 0.00 59 1015.1
20260508025503 50 202 0.0 3.5 0.00 0.00 0.00 59 1015.4
20260508025005 50 225 0.9 2.6 0.00 0.00 0.00 58 1015.4